Flag for Germany Weather past 2 weeks in Idar-Oberstein, Rhineland-Palatinate, Germany

Now
55 °F

Partly sunny.


Feels Like: 54 °F
Forecast: 48 / 65 °F
Wind: 6 mph from Northwest

Location: Hahn

Current Time: Sep 2, 2015 at 11:33:00 AM

Latest Report: Sep 2, 2015 at 11:20 AM


Visibility: N/A

Pressure: 30.07 "Hg

Humidity: 88%

Dew point: 52 °F

Location of Idar-ObersteinLocation

Historic Weather in Idar-Oberstein — Graph

°F

Idar-Oberstein temperature yesterday

Maximum temperature yesterday: 70 °F (at 12:20 AM)
Minimum temperature yesterday: 52 °F (at 11:20 PM)
Average temperature yesterday: 60 °F

Past Weeks' High & Low Weather Summary

 TemperatureHumidityPressure
High84 °F (Aug 30, 1:20 PM)100% (Aug 19, 3:20 AM)30.30 "Hg (Aug 19, 3:20 AM)
Low46 °F (Aug 19, 6:50 AM)31% (Aug 22, 7:20 PM)29.65 "Hg (Aug 24, 1:50 PM)
Average63 °F74%30.03 "Hg
* Reported Aug 18 10:20 AM — Sep 2 10:20 AM, Idar-Oberstein, Weather by CustomWeather, © 2015

Note: Actual official high and low records may vary slightly from our data, if they occured in-between our weather recording intervals... More about our weather records

Advertising

Idar-Oberstein weather history for previous 24 hours

 ConditionsComfort  
Time TempWeatherWind HumidityBarometerVisibility
10:20 AM
Wed, Sep 2
55 °FBroken clouds.3 mph88%30.07 "Hg4 mi
9:50 AM54 °FPartly sunny.2 mph94%30.07 "Hg4 mi
9:20 AM52 °FPartly sunny.3 mph100%30.07 "Hg2 mi
8:50 AM52 °FFog.1 mph100%30.07 "Hg2 mi
8:20 AM52 °FFog.1 mph100%30.07 "Hg2 mi
7:50 AM52 °FFog.5 mph100%30.07 "Hg2 mi
7:20 AM50 °FFog.2 mph100%30.07 "Hg2 mi
6:50 AM50 °FFog.1 mph100%30.07 "Hg2 mi
6:20 AM52 °FFog.2 mph100%30.07 "Hg2 mi
5:50 AM52 °FFog.5 mph100%30.07 "Hg2 mi
5:20 AM52 °FFog.3 mph100%30.07 "Hg2 mi
4:50 AM52 °FFog.3 mph100%30.07 "Hg2 mi
4:20 AM52 °FFog.3 mph100%30.07 "Hg1 mi
3:50 AM52 °FFog.5 mph100%30.07 "Hg1 mi
3:20 AM54 °FFog.6 mph100%30.07 "Hg1 mi
2:50 AM54 °FFog.6 mph100%30.07 "Hg1 mi
2:20 AM54 °FPassing clouds.5 mph100%30.09 "HgN/A
1:50 AM54 °FPassing clouds.7 mph100%30.07 "HgN/A
1:20 AM54 °FPassing clouds.5 mph100%30.07 "HgN/A
12:50 AM54 °FPassing clouds.5 mph100%30.07 "HgN/A
11:20 PM
Tue, Sep 1
52 °FPassing clouds.3 mph100%30.07 "HgN/A
10:50 PM54 °FPartly cloudy.3 mph94%30.07 "HgN/A
10:20 PM54 °FPassing clouds.5 mph94%30.07 "HgN/A
9:50 PM55 °FPassing clouds.6 mph94%30.07 "HgN/A
9:20 PM55 °FPassing clouds.8 mph94%30.04 "HgN/A
8:50 PM55 °FPartly sunny.7 mph94%30.04 "HgN/A
8:20 PM57 °FPartly sunny.6 mph88%30.04 "HgN/A
7:50 PM57 °FBroken clouds.6 mph88%30.01 "HgN/A
7:20 PM57 °FScattered clouds.7 mph94%30.01 "HgN/A
6:50 PM59 °FScattered clouds.8 mph88%30.01 "HgN/A
6:20 PM59 °FScattered clouds.10 mph94%30.01 "HgN/A
5:50 PM59 °FScattered clouds.8 mph94%29.98 "HgN/A
5:20 PM57 °FBroken clouds.9 mph100%29.98 "HgN/A
4:50 PM57 °FBroken clouds.10 mph100%29.98 "HgN/A
4:20 PM57 °FPartly sunny.10 mph100%29.98 "HgN/A
3:50 PM57 °FDrizzle. Broken clouds.9 mph100%29.95 "Hg6 mi
3:20 PM57 °FDrizzle. Partly sunny.10 mph100%29.95 "Hg6 mi
2:50 PM57 °FDrizzle. Partly sunny.13 mph100%29.95 "Hg5 mi
2:20 PM57 °FDrizzle. Partly sunny.9 mph100%29.92 "Hg5 mi
1:50 PM59 °FDrizzle. Partly sunny.10 mph100%29.89 "Hg5 mi
1:20 PM57 °FDrizzle. Partly sunny.12 mph100%29.89 "Hg4 mi
12:50 PM57 °FDrizzle. Fog.9 mph100%29.86 "Hg3 mi
12:20 PM57 °FRain. Fog.12 mph100%29.86 "Hg2 mi
11:50 AM57 °FRain. Fog.10 mph100%29.86 "Hg2 mi
11:20 AM57 °FRain. Fog.9 mph100%29.83 "Hg2 mi
Weather by CustomWeather, © 2015

See weather overviewHow to use our weather pages